Simultaneous Nadir Overpasses (SNOs) Predictions

Prediction of SNOs between METOP-B and NOAA-19 Satellite Orbit:

Table of predicted SNOs for the next 14.0 days since TLE Epoch: 12/27/2013
Index Date (METOP-B) Time (METOP-B) Lat,Lon (METOP-B) SZA (METOP-B ) Date (NOAA-19) Time (NOAA-19) Lat,Lon (NOAA-19) SZA (NOAA-19 ) Distance(km) Time Diff (sec)
1 01/01/2014 16:17:17 -74.10, 110.98 82.96 01/01/2014 16:16:08 -74.14, 108.75 82.84 68.14 69
2 01/01/2014 17:08:06 73.62, -82.82 96.60 01/01/2014 17:07:03 73.63, -82.75 96.61 2.41 63
3 01/01/2014 17:58:48 -73.63, 84.53 83.40 01/01/2014 17:58:02 -73.65, 84.46 83.37 2.71 46
4 01/01/2014 18:49:28 73.60,-108.21 96.58 01/01/2014 18:49:07 73.63,-108.26 96.60 3.01 21
5 01/01/2014 19:40:10 -73.61, 59.14 83.42 01/01/2014 19:40:05 -73.60, 59.07 83.44 2.94 5
6
